Weather History for South Haven, MI

Change the Weather History Date:

Tuesday, December 4, 2012

  Actual Average (KBIV) Record (KBIV)
Temperature  
Mean Temperature 52 °F 35 °F  
Max Temperature 66 °F 40 °F 65 °F (2012)
Min Temperature 38 °F 29 °F 1 °F (1966)
Degree Days  
Heating Degree Days 12 30  
Month to date heating degree days 119  
Since 1 July heating degree days 1342  
Cooling Degree Days 0 0  
Month to date cooling degree days 0  
Year to date cooling degree days 693  
Growing Degree Days 2 (Base 50)    
Moisture  
Dew Point 41 °F    
Average Humidity 72    
Maximum Humidity 92    
Minimum Humidity 59    
Precipitation  
Precipitation 0.00 in 0.10 in 0.69 in (1955)
Month to date precipitation 0.40  
Year to date precipitation 34.56  
Sea Level Pressure  
Sea Level Pressure 30.04 in    
Wind  
Wind Speed 11 mph (West)    
Max Wind Speed 21 mph    
Max Gust Speed 31 mph    
Visibility 10 miles    
Events Rain    
T = Trace of Precipitation, MM = Missing Value Source: NWS Daily Summary

Daily Weather History Graph

Daily Weather History Graph

Search for Another Location

Airport:

Trip Planner

Search our weather history database for the weather conditions in past years. The results will help you decide how hot, cold, wet, or windy it might be!

Date:

Astronomy

Dec. 04, 2012 Rise Set
Actual Time 7:58 AM EST 5:12 PM EST
Civil Twilight 7:26 AM EST 5:44 PM EST
Nautical Twilight 6:51 AM EST 6:19 PM EST
Astronomical Twilight 6:17 AM EST 6:53 PM EST
Moon 11:04 PM EST (12/4) 11:48 AM EST (12/4)
Length of Visible Light 10h 17m
Length of Day
9h 14m
Waning Gibbous, 69% of the Moon is Illuminated
Dec 4
Waning Gibbous
Dec 6
Last Quarter
Dec 13
New
Dec 20
First Quarter
Dec 28
Full

Hourly Weather History & Observations

Time (EST) Temp. Windchill Dew Point Humidity Pressure Visibility Wind Dir Wind Speed Gust Speed Precip Events Conditions
12:15 AM 65.8 °F - 57.0 °F 73% 29.85 in 10.0 mi SW 15.0 mph 24.2 mph N/A   Overcast
12:36 AM 66.2 °F - 57.0 °F 72% 29.86 in 10.0 mi SW 16.1 mph 25.3 mph N/A   Overcast
12:55 AM 66.2 °F - 57.2 °F 73% 29.86 in 10.0 mi SW 19.6 mph 28.8 mph N/A   Overcast
1:15 AM 64.6 °F - 56.5 °F 75% 29.87 in 10.0 mi SW 20.7 mph 31.1 mph N/A   Overcast
1:36 AM 63.0 °F - 56.3 °F 79% 29.88 in 10.0 mi SW 17.3 mph 27.6 mph N/A   Overcast
1:55 AM 62.8 °F - 56.5 °F 80% 29.88 in 10.0 mi WSW 17.3 mph 25.3 mph N/A   Overcast
2:15 AM 62.2 °F - 56.5 °F 81% 29.89 in 10.0 mi WSW 17.3 mph 26.5 mph N/A   Overcast
2:35 AM 60.3 °F - 57.2 °F 90% 29.90 in 7.0 mi WSW 17.3 mph 21.9 mph N/A Rain Light Rain
2:55 AM 55.8 °F - 53.4 °F 92% 29.92 in 7.0 mi WNW 10.4 mph 23.0 mph N/A   Overcast
3:15 AM 54.3 °F - 51.6 °F 91% 29.93 in 7.0 mi NW 9.2 mph - N/A   Overcast
3:56 AM 52.7 °F - 47.5 °F 82% 29.94 in 10.0 mi NNW 10.4 mph 17.3 mph N/A   Overcast
4:15 AM 51.8 °F - 46.9 °F 83% 29.93 in 10.0 mi NNW 9.2 mph 16.1 mph N/A Rain Light Rain
4:35 AM 51.4 °F - 46.4 °F 83% 29.94 in 10.0 mi NW 8.1 mph 17.3 mph N/A   Overcast
5:15 AM 50.9 °F - 44.6 °F 79% 29.96 in 10.0 mi North 6.9 mph - N/A   Overcast
5:36 AM 50.4 °F - 44.4 °F 80% 29.97 in 10.0 mi NNW 6.9 mph - N/A   Overcast
5:55 AM 50.2 °F - 43.9 °F 79% 29.97 in 10.0 mi NW 10.4 mph - N/A   Light Drizzle
6:15 AM 50.2 °F - 43.3 °F 77% 29.99 in 10.0 mi NW 4.6 mph - N/A   Overcast
6:36 AM 50.0 °F - 43.2 °F 77% 30.00 in 10.0 mi Calm Calm - N/A   Overcast
6:55 AM 50.0 °F - 43.5 °F 78% 30.01 in 10.0 mi Calm Calm - N/A   Overcast
7:15 AM 49.8 °F - 44.2 °F 81% 30.02 in 10.0 mi Calm Calm - N/A   Overcast
7:35 AM 49.5 °F - 45.0 °F 84% 30.02 in 10.0 mi Calm Calm - N/A   Overcast
7:55 AM 49.5 °F - 44.8 °F 84% 30.02 in 10.0 mi Calm Calm - N/A   Overcast
8:15 AM 49.5 °F - 44.2 °F 82% 30.02 in 10.0 mi Calm Calm - N/A   Overcast
8:35 AM 49.3 °F - 44.4 °F 83% 30.02 in 10.0 mi Calm Calm - N/A   Overcast
8:55 AM - - - N/A% - - North - - N/A   Unknown
9:15 AM - - - N/A% - - North - - N/A   Unknown
9:35 AM 48.0 °F - 41.2 °F 77% 30.04 in 10.0 mi Calm Calm - N/A   Mostly Cloudy
9:55 AM 48.2 °F - 40.8 °F 76% 30.05 in 10.0 mi WSW 5.8 mph - N/A   Mostly Cloudy
10:15 AM 48.2 °F - 41.4 °F 77% 30.05 in - West 4.6 mph - N/A   Scattered Clouds
10:35 AM 49.1 °F - 41.0 °F 74% 30.05 in 10.0 mi West 6.9 mph - N/A   Clear
10:55 AM 49.5 °F - 41.0 °F 73% 30.05 in 10.0 mi West 8.1 mph - N/A   Clear
11:15 AM 49.5 °F - 39.9 °F 70% 30.05 in 10.0 mi West 8.1 mph - N/A   Clear
11:34 AM 49.3 °F - 40.1 °F 71% 30.06 in 10.0 mi West 9.2 mph - N/A   Clear
11:55 AM 50.7 °F - 39.6 °F 66% 30.06 in 10.0 mi WNW 8.1 mph - N/A   Clear
12:15 PM 50.2 °F - 39.0 °F 66% 30.05 in 10.0 mi West 9.2 mph - N/A   Clear
12:34 PM 50.5 °F - 38.7 °F 64% 30.05 in 10.0 mi West 10.4 mph - N/A   Clear
12:55 PM 50.4 °F - 37.9 °F 62% 30.05 in 10.0 mi WNW 9.2 mph - N/A   Clear
1:15 PM 50.0 °F - 37.2 °F 62% 30.05 in 10.0 mi WNW 9.2 mph 16.1 mph N/A   Clear
1:35 PM 49.5 °F - 37.6 °F 64% 30.05 in 10.0 mi West 8.1 mph - N/A   Clear
1:55 PM 50.5 °F - 36.5 °F 59% 30.05 in 10.0 mi WNW 9.2 mph 16.1 mph N/A   Clear
2:14 PM 49.1 °F - 37.4 °F 64% 30.05 in 10.0 mi West 6.9 mph - N/A   Clear
2:35 PM 49.1 °F - 37.9 °F 65% 30.05 in 10.0 mi West 9.2 mph - N/A   Clear
2:54 PM 49.8 °F - 37.4 °F 62% 30.05 in 10.0 mi WSW 8.1 mph - N/A   Clear
3:15 PM 49.8 °F - 36.9 °F 61% 30.05 in 10.0 mi WSW 9.2 mph - N/A   Clear
3:35 PM 49.1 °F - 37.4 °F 64% 30.05 in 10.0 mi West 8.1 mph - N/A   Clear
3:54 PM 49.1 °F - 37.9 °F 65% 30.05 in 10.0 mi WSW 5.8 mph - N/A   Clear
4:15 PM 49.6 °F - 36.3 °F 60% 30.06 in 10.0 mi WSW 9.2 mph - N/A   Clear
4:34 PM 49.3 °F - 36.5 °F 61% 30.06 in 10.0 mi WSW 9.2 mph - N/A   Clear
4:55 PM 49.1 °F - 36.5 °F 62% 30.06 in 10.0 mi WSW 8.1 mph - N/A   Clear
5:15 PM 48.4 °F - 37.6 °F 66% 30.07 in 10.0 mi WSW 9.2 mph - N/A   Clear
5:35 PM 48.2 °F - 39.0 °F 71% 30.07 in 10.0 mi WSW 9.2 mph - N/A   Clear
5:55 PM 48.4 °F - 38.3 °F 68% 30.08 in 10.0 mi WSW 8.1 mph - N/A   Clear
6:14 PM 48.6 °F - 37.8 °F 66% 30.09 in 10.0 mi WSW 10.4 mph - N/A   Clear
6:35 PM 48.4 °F - 39.2 °F 71% 30.09 in 10.0 mi WSW 9.2 mph 16.1 mph N/A   Clear
6:54 PM 48.4 °F - 39.0 °F 70% 30.09 in 10.0 mi WSW 9.2 mph - N/A   Clear
7:15 PM 48.4 °F - 39.2 °F 71% 30.10 in 10.0 mi West 9.2 mph - N/A   Clear
7:35 PM 48.2 °F - 39.7 °F 73% 30.11 in 10.0 mi West 5.8 mph - N/A   Clear
7:55 PM 48.0 °F - 39.6 °F 73% 30.12 in 10.0 mi West 8.1 mph - N/A   Clear
8:15 PM 47.5 °F - 40.1 °F 76% 30.12 in 10.0 mi WNW 5.8 mph - N/A   Clear
8:35 PM 47.5 °F - 39.6 °F 74% 30.13 in 10.0 mi WNW 8.1 mph - N/A   Clear
8:55 PM 47.3 °F - 37.2 °F 68% 30.14 in 10.0 mi NW 13.8 mph - N/A   Clear
9:14 PM 46.2 °F 40.5 °F 32.5 °F 59% 30.15 in 10.0 mi NNW 12.7 mph 25.3 mph N/A   Clear
9:35 PM 45.1 °F 39.5 °F 34.0 °F 65% 30.15 in 10.0 mi NNW 11.5 mph 18.4 mph N/A   Clear
9:54 PM 43.9 °F 36.8 °F 33.1 °F 66% 30.16 in 10.0 mi NNW 15.0 mph 20.7 mph N/A   Clear
10:15 PM 43.2 °F 35.9 °F 32.0 °F 65% 30.16 in 10.0 mi NNW 15.0 mph 23.0 mph N/A   Clear
10:35 PM 42.8 °F 35.4 °F 31.3 °F 64% 30.17 in 10.0 mi NNW 15.0 mph 24.2 mph N/A   Clear
10:54 PM 41.4 °F 33.3 °F 31.6 °F 68% 30.18 in 10.0 mi NNW 16.1 mph 24.2 mph N/A   Clear
11:15 PM 40.3 °F 31.9 °F 30.9 °F 69% 30.18 in 10.0 mi NNW 16.1 mph 23.0 mph N/A   Clear
11:35 PM 39.2 °F 32.0 °F 30.0 °F 70% 30.20 in 10.0 mi NNW 11.5 mph 23.0 mph N/A   Clear
11:54 PM 38.5 °F 30.7 °F 28.0 °F 66% 30.21 in 10.0 mi NNW 12.7 mph 19.6 mph N/A   Clear